Location: N�rnberg
(49.4489°N, 11.0797°E)
Time: 21:35:14
(UTC+01:00)

ISS - Pass Details

Date: 14 February 2018
Orbit: 402 x 407 km, 51.6° (Epoch: 24 February)

Event Time Altitude Azimuth Distance (km) Brightness Sun altitude
Rises 18:24:29 0° 279° (W) 2,320 1.6 -8.9°
Reaches altitude 10° 18:28:00 10° 239° (WSW) 1,455 0.2 -9.4°
Maximum altitude 18:28:46 11° 225° (SW) 1,415 -0.2 -9.6°
Drops below altitude 10° 18:29:37 10° 210° (SSW) 1,459 -0.4 -9.7°
Sets 18:33:03 0° 171° (S) 2,306 0.0 -10.3°
